Вернуться в каталог

DELTA 1 DEB

АктивенLEO
NORAD 18232·DEBRIS·🇺🇸 United States

Запущен Jul 29, 1976 с Vandenberg Space Force Base

Loading…

Ближайшие Пролёты (ближайшие 24 часа)

TLE

СвежийSource: Space-Track

Эпоха: Sep 14, 2026, 11:32 UTC

1 18232U 76077EY  26257.48117704  .00013188  00000-0  71378-2 0  9996
2 18232 102.9334 175.2010 0200059 133.5772 284.4099 14.03031749 40552

Отслеживайте DELTA 1 DEB в реальном времени с AllMySat

Download on the App Store